カタログに戻る

STARLINK-36353

運用中通信SSO
NORAD 67820·PAYLOAD·🇺🇸 United States

打ち上げ Feb 15, 2026 から Vandenberg Space Force Base

Loading…

次のパス (今後24時間)

TLE

最新Source: CelesTrak SupGP

元期: Sep 15, 2026, 03:12 UTC

1 67820C 26032Z   26258.13381944 -.00048571  00000+0 -15075-2 0  2586
2 67820  97.2859  84.6258 0001507  94.4002 257.3851 15.33468889    17

AllMySatでSTARLINK-36353をリアルタイム追跡

Download on the App Store